Temperature
18 18 18 19 18 16 16 15 15 16 15 17 17 16 18 20 20 20 19 19 19 18 18 17 16 16 16 15 15 14 14 13 13 13 13 12 12 12 12 12 12 12 12 12
19 19 18 18 18 17 16 16 15 16 16 16 17 18 19 19 19 20 20 19 19 18 18 17 17 16 16 15 15 15 14 14 13 13 13 13 13 12 12 12 12 12 12 12
17 17 19 18 18 17 17 16 16 17 18 17 17 16 19 20 20 21 20 20 19 19 18 18 17 17 16 16 15 15 14 14 14 14 13 13 13 13 13 13 13 12 12 12
15 18 19 18 18 18 18 18 16 17 17 17 18 21 22 22 22 21 21 20 20 19 18 18 17 17 16 16 16 15 15 14 14 14 14 13 13 13 13 13 13 13 13 13
14 16 17 17 18 18 18 18 17 17 18 18 19 19 20 22 22 21 21 20 20 19 18 18 17 17 17 16 16 15 15 15 14 14 14 14 14 13 13 13 13 13 13 13
13 17 17 18 20 19 19 19 19 17 17 17 17 16 18 22 22 21 21 20 20 19 18 18 17 17 17 16 16 16 15 15 15 14 14 14 14 14 13 13 13 13 13 13
14 15 16 17 18 19 19 19 21 20 19 18 17 20 22 22 22 21 20 20 19 19 18 18 17 17 17 16 16 16 15 15 15 15 14 14 14 14 14 13 13 13 13 13
12 15 16 18 18 18 19 21 22 22 22 21 22 22 22 22 22 21 20 20 19 19 18 18 17 17 17 16 16 16 15 15 15 15 14 14 14 14 14 14 13 13 13 13
14 16 18 19 20 21 21 22 23 23 23 23 22 22 22 22 21 21 20 19 19 18 18 18 17 17 17 16 16 16 15 15 15 15 14 14 14 14 14 13 13 13 13 13
13 14 17 20 21 22 22 22 23 23 23 23 23 23 22 21 21 20 20 19 19 18 18 18 17 17 17 16 16 16 15 15 15 14 14 14 14 13 13 13 13 13 13 13
14 14 17 21 22 22 22 22 23 23 23 23 23 22 22 21 21 20 20 19 18 18 18 17 17 17 16 16 16 15 15 15 14 14 14 13 13 13 13 13 12 12 12 12
15 17 17 20 22 21 21 22 22 22 23 23 23 22 22 21 21 20 20 19 18 18 17 17 17 16 16 16 15 15 15 14 14 14 13 13 12 12 12 12 12 12 12 12
18 19 19 19 20 21 21 21 22 22 22 22 22 22 22 21 21 20 19 19 18 18 17 17 16 16 16 15 15 15 14 14 13 13 12 12 12 11 11 11 11 11 11 11
18 17 17 18 19 20 20 20 21 21 22 22 22 22 21 21 20 20 19 19 18 17 17 16 16 15 15 15 14 14 14 13 12 12 12 11 11 11 10 10 10 10 10 10
16 16 16 17 18 19 19 19 20 20 21 21 21 21 21 21 20 20 19 18 17 17 16 16 15 15 14 14 13 13 13 12 12 11 11 10 10 10 10 9 9 9 9 9
14 15 15 16 16 17 18 19 19 20 20 21 21 21 20 20 20 19 18 17 17 16 16 15 15 14 14 13 13 12 12 11 11 10 10 10 9 9 9 8 8 8 8 8
12 12 13 13 14 16 17 18 18 19 20 20 20 20 19 19 18 18 17 16 16 15 15 14 14 13 13 12 12 11 11 10 10 9 9 9 8 8 8 7 7 7 7 6
11 11 12 12 13 14 16 17 18 18 19 19 19 18 18 18 18 17 16 15 14 14 13 13 13 12 12 11 11 10 10 9 9 8 8 8 7 7 7 6 6 6 6 5
11 11 12 12 13 13 14 16 17 18 18 18 18 18 17 17 17 16 15 14 14 13 12 12 11 11 11 10 10 9 9 8 8 7 7 7 6 6 6 6 5 5 5 5
10 11 11 12 13 13 14 15 16 16 17 17 16 16 16 16 16 15 14 14 13 13 12 11 11 10 9 9 9 8 8 7 7 7 6 6 6 5 5 5 4 4 4 4
9 10 10 11 12 12 13 14 14 15 15 15 15 15 15 15 15 14 13 12 12 11 11 10 10 9 8 8 8 8 7 7 6 6 6 5 5 5 4 4 4 4 3 3
8 9 9 10 11 11 12 12 13 13 14 14 14 14 14 14 13 13 12 12 11 10 10 9 9 8 8 7 7 7 7 6 6 6 5 5 5 4 4 4 3 3 3 3
8 8 9 9 10 10 11 11 11 12 12 12 13 13 13 13 13 12 11 11 10 9 9 8 8 7 7 7 6 6 6 6 5 5 5 4 4 4 4 3 3 3 2 2
7 7 8 8 9 9 10 10 10 10 11 11 11 12 12 12 11 11 11 10 9 9 8 8 7 7 6 6 6 6 5 5 5 5 4 4 4 4 3 3 3 2 2 2
7 7 7 8 8 8 9 9 9 9 10 10 10 10 10 11 11 10 9 9 8 8 7 7 6 6 6 6 5 5 5 5 5 4 4 4 4 3 3 3 2 2 2 2
6 7 7 7 7 8 8 8 8 9 9 9 9 9 9 9 9 9 9 8 8 7 7 6 6 6 6 5 5 5 5 4 4 4 4 3 3 3 3 2 2 2 2 2
6 6 7 7 7 7 7 8 8 8 8 8 8 8 8 8 8 8 8 7 7 6 6 6 6 5 5 5 5 4 4 4 4 4 3 3 3 3 2 2 2 2 1 1
Wind_Speed
6 6 4 6 7 8 9 9 10 10 10 12 10 10 9 7 7 7 7 7 9 8 8 7 6 6 6 6 5 4 4 4 5 4 3 3 3 3 3 3 4 4 4 5
3 3 4 5 8 9 9 7 8 8 10 11 8 5 5 7 8 9 9 10 10 9 8 8 8 7 6 6 6 5 5 5 4 3 3 3 3 3 4 4 4 4 4 4
4 5 3 7 9 10 8 8 10 11 13 7 6 9 10 10 10 11 11 10 10 10 10 9 9 8 8 7 5 5 6 5 4 3 4 4 3 3 4 4 3 4 4 4
1 1 6 9 5 7 8 9 11 10 9 9 11 9 7 9 11 11 10 10 10 9 9 8 7 6 6 5 5 5 5 5 5 4 4 4 3 4 4 3 3 4 4 4
4 3 8 10 6 6 7 8 9 12 11 7 4 2 4 8 10 11 10 9 9 9 7 7 7 7 6 5 5 5 5 6 5 5 5 4 4 5 4 3 4 4 4 4
4 3 6 9 5 4 4 6 7 9 9 7 9 4 7 7 9 9 8 7 7 7 6 6 6 7 7 6 5 6 7 6 5 5 5 5 6 5 3 3 4 4 4 4
5 6 8 10 4 5 3 8 5 7 8 11 11 9 5 6 8 8 7 7 7 8 7 6 7 8 7 6 7 7 5 4 4 4 5 5 4 3 3 3 3 4 4 5
6 5 9 6 6 8 9 5 3 5 7 11 10 5 4 7 8 9 8 7 8 8 6 5 7 9 7 6 6 4 3 3 3 3 3 3 3 3 3 2 3 4 4 5
9 9 7 4 8 7 4 6 6 6 7 9 8 7 7 7 8 8 9 8 7 8 7 5 6 8 8 6 4 4 3 2 2 2 2 1 2 2 2 1 2 3 3 4
6 10 9 9 8 8 7 8 8 7 6 9 9 9 9 8 8 8 8 8 8 9 8 6 5 6 6 4 4 5 4 2 1 0 1 1 1 0 0 1 2 2 3 4
7 10 10 9 7 7 6 7 7 7 7 10 10 9 10 10 10 9 8 7 8 9 9 7 6 5 4 4 5 5 4 2 1 1 1 1 2 2 2 2 1 1 2 2
10 10 7 10 10 7 8 9 9 8 7 8 10 11 11 10 9 9 9 8 8 9 8 7 7 5 3 4 6 6 4 3 2 2 2 2 3 4 7 6 11 10 8 4
11 10 9 11 11 9 9 11 10 10 10 9 9 10 11 9 9 9 10 10 11 10 9 8 7 6 4 5 6 7 6 4 3 3 3 2 2 3 3 5 9 12 13 12
9 8 9 10 11 12 11 11 9 8 9 8 8 8 9 8 9 11 12 11 11 11 10 9 8 6 4 6 7 7 6 5 5 3 3 3 4 3 3 4 4 5 9 14
9 8 11 12 12 12 9 7 7 8 7 7 7 9 11 13 13 12 11 11 12 11 10 9 9 6 5 7 8 7 6 5 4 4 4 4 4 4 5 5 5 4 4 7
12 10 9 9 11 11 8 7 8 10 9 8 9 10 11 11 11 11 12 14 14 13 11 10 9 7 7 8 8 7 6 10 8 6 5 5 5 5 5 5 5 4 5 4
9 11 11 12 12 11 9 9 10 10 8 9 10 9 11 12 12 12 11 10 10 11 10 10 9 8 8 8 9 7 6 7 11 7 5 5 5 5 4 4 4 4 4 5
7 9 10 11 12 12 11 10 8 8 8 8 9 12 14 15 16 14 13 12 11 9 7 8 9 9 8 8 8 7 7 6 6 6 5 5 4 4 4 4 4 4 3 4
12 12 12 11 11 11 10 9 7 6 5 8 12 13 13 13 14 15 15 15 15 12 8 8 15 11 9 10 10 7 7 7 6 5 5 6 5 4 4 4 3 3 2 3
13 13 13 13 12 10 9 8 5 3 5 9 11 11 11 11 14 15 15 12 10 9 10 11 11 9 9 10 11 7 7 7 7 6 5 5 4 4 3 3 3 2 2 1
14 14 14 13 13 11 9 7 3 2 5 9 11 13 13 13 14 14 13 9 6 9 12 15 10 8 8 9 11 7 7 7 7 6 5 5 4 4 3 3 2 2 1 1
12 12 13 13 12 11 10 7 3 1 4 5 7 10 12 13 12 10 8 8 10 14 10 8 8 11 12 12 7 7 7 7 6 5 5 5 5 4 4 3 3 2 2 1
11 11 11 11 10 9 8 7 5 1 3 6 8 11 12 11 11 12 9 7 10 16 11 8 12 17 16 9 7 7 7 7 6 6 5 5 5 5 4 4 3 3 2 2
11 11 10 9 8 7 7 7 5 3 2 2 4 7 10 9 6 4 6 15 18 16 9 12 17 18 15 7 7 7 6 6 6 5 5 5 4 4 4 4 3 3 3 3
10 10 9 9 7 6 5 4 4 3 3 3 3 4 5 6 6 8 9 12 17 15 8 14 18 17 10 7 7 7 6 6 6 6 5 5 5 5 4 4 4 3 3 3
9 8 8 7 6 4 3 2 1 1 1 2 2 3 4 4 7 8 8 10 12 14 9 7 8 10 7 7 7 7 6 6 6 6 6 5 5 5 5 5 5 4 3 3
8 7 6 6 5 3 3 2 2 2 3 4 3 3 5 6 7 8 9 8 8 8 7 7 7 7 7 7 6 6 6 5 5 6 5 5 5 5 5 5 4 4 3 3
Wind_Direction
236 237 205 222 214 184 191 194 198 230 230 249 243 231 230 222 211 206 213 212 211 213 218 220 225 228 224 227 220 206 203 224 245 260 270 286 299 308 316 324 327 327 336 339
289 288 226 247 241 210 216 212 221 245 260 248 246 220 220 214 203 208 217 218 216 213 212 214 218 220 218 222 216 197 208 228 242 253 263 273 284 299 312 317 320 329 331 331
267 308 351 274 237 206 207 206 191 219 242 239 208 213 217 213 206 211 215 214 211 209 209 211 211 208 211 215 198 193 213 230 237 242 254 263 276 294 297 300 310 316 317 321
202 20 250 247 252 205 215 235 211 222 238 220 215 221 222 204 200 212 212 209 210 207 206 208 203 198 195 183 184 197 214 230 234 231 246 260 270 275 278 283 289 295 301 306
142 219 278 293 270 188 196 263 223 219 236 228 189 107 282 219 201 208 206 201 201 196 192 188 189 182 166 172 179 195 218 231 232 223 236 251 259 264 265 270 281 282 286 300
142 186 247 255 262 179 140 281 253 203 213 178 136 168 246 218 192 200 193 184 180 171 165 173 181 160 160 176 184 211 225 231 229 217 224 240 250 257 255 252 269 284 289 287
174 215 259 253 252 135 168 246 259 196 192 170 183 204 217 173 175 177 175 172 160 155 164 176 161 152 163 177 207 223 223 224 228 224 229 239 250 252 256 265 282 291 294 295
159 191 253 244 154 181 220 251 247 210 193 190 209 208 180 174 173 166 161 157 154 154 163 157 153 156 168 197 221 210 192 206 233 244 248 250 250 267 264 263 286 297 305 309
190 215 240 227 216 242 247 253 246 223 214 194 196 202 192 186 179 173 168 162 158 155 150 144 158 164 177 208 201 172 167 199 238 267 279 283 261 276 288 271 273 293 301 304
245 266 264 260 252 254 235 237 251 236 216 188 196 198 190 185 180 175 171 166 156 150 152 159 164 169 186 187 164 155 167 195 211 242 328 352 359 357 0 319 300 299 304 303
259 277 299 293 258 255 257 251 251 237 215 203 196 196 190 188 185 180 172 165 160 161 161 164 158 162 171 165 152 150 156 155 131 112 101 65 62 64 67 45 65 4 313 304
246 250 248 274 284 284 271 265 252 237 232 216 199 198 191 189 184 175 169 161 158 158 157 157 152 151 153 152 149 146 141 136 124 113 102 100 93 68 54 63 54 52 49 50
248 267 258 266 281 274 263 261 254 236 225 220 211 196 187 184 177 169 165 164 165 163 158 152 147 143 144 142 139 139 141 138 121 112 109 106 104 103 78 43 45 44 43 47
265 281 281 274 272 277 269 264 256 246 234 218 205 190 180 174 167 170 174 171 160 152 150 148 143 145 146 138 132 130 129 127 122 113 107 100 96 91 89 80 55 32 31 43
291 275 265 276 284 284 276 263 252 246 234 217 195 185 180 177 178 177 166 152 145 145 149 148 146 151 145 136 130 129 126 122 115 108 100 97 94 90 86 82 76 56 36 34
307 309 299 293 289 288 281 258 246 246 232 212 198 194 187 176 164 154 153 153 153 159 160 155 154 155 145 136 129 126 128 130 123 113 104 98 94 94 90 85 78 65 51 34
324 322 316 311 302 293 277 257 246 244 229 211 200 177 154 145 144 149 153 154 151 151 152 152 152 147 141 138 133 131 126 128 124 113 107 108 105 103 100 95 87 74 55 49
300 296 296 296 297 296 289 276 261 246 227 209 168 155 158 161 163 161 152 140 131 129 140 146 145 140 137 135 132 130 127 124 124 123 119 114 111 108 104 100 94 85 64 55
332 326 322 318 309 299 293 285 272 249 211 170 165 170 171 166 158 153 149 149 151 155 165 161 153 142 138 147 139 130 130 128 124 121 121 123 114 109 110 108 102 92 84 69
338 336 335 331 326 318 309 305 290 235 185 169 162 155 154 155 153 153 154 157 164 160 157 155 146 142 143 152 143 134 136 137 137 134 131 131 131 129 126 123 118 111 102 93
338 339 340 336 333 331 327 322 301 223 179 167 166 167 161 155 155 154 153 155 160 147 153 155 150 147 147 152 146 139 141 143 145 147 147 147 146 145 144 142 141 145 151 156
333 336 338 339 339 339 339 340 338 166 157 155 149 147 147 151 153 151 151 155 158 157 152 150 150 158 160 151 142 144 146 148 149 150 153 156 158 161 168 171 176 187 197 214
325 327 332 335 333 330 340 351 359 47 156 160 159 160 160 158 160 158 158 154 154 162 155 157 166 165 160 150 148 150 152 154 157 161 165 168 172 175 180 186 193 200 211 227
323 324 325 326 332 341 346 346 356 16 71 113 145 153 151 146 144 142 137 158 164 161 159 168 170 168 161 151 153 154 158 161 164 167 170 172 176 181 186 191 200 211 220 232
313 316 318 325 329 327 326 340 5 29 63 82 104 128 141 148 153 153 150 158 165 160 159 174 174 170 160 155 160 163 166 173 174 173 176 178 184 189 194 198 205 212 220 229
304 306 301 298 296 293 294 306 323 311 126 125 121 125 124 122 133 143 148 154 160 162 162 163 164 161 157 161 166 171 176 181 185 183 183 186 190 192 196 202 208 210 220 232
295 295 296 299 300 289 273 255 235 228 204 178 169 163 151 146 147 150 150 152 155 157 157 157 155 158 163 166 170 174 176 178 178 181 184 187 189 194 199 202 204 208 217 235
Height
1496 1494 1494 1494 1495 1501 1504 1505 1511 1505 1502 1488 1482 1480 1479 1481 1482 1485 1486 1488 1490 1492 1494 1496 1497 1499 1500 1500 1501 1501 1501 1500 1500 1499 1498 1497 1496 1495 1493 1492 1491 1489 1488 1486
1495 1491 1492 1494 1491 1493 1495 1496 1498 1495 1491 1477 1475 1476 1477 1478 1479 1481 1483 1485 1487 1489 1491 1493 1495 1496 1498 1498 1499 1499 1499 1499 1499 1498 1498 1497 1496 1495 1493 1492 1491 1489 1488 1486
1503 1496 1492 1497 1485 1485 1486 1484 1486 1489 1479 1471 1473 1472 1472 1473 1475 1477 1479 1481 1484 1486 1488 1490 1492 1494 1495 1497 1497 1498 1498 1498 1498 1497 1497 1496 1495 1494 1493 1492 1491 1489 1488 1487
1505 1499 1504 1488 1472 1473 1476 1473 1473 1471 1467 1466 1466 1466 1468 1469 1471 1473 1476 1478 1481 1483 1485 1488 1490 1492 1493 1495 1495 1496 1496 1496 1496 1496 1496 1495 1495 1494 1493 1492 1491 1489 1488 1487
1509 1506 1499 1482 1469 1470 1473 1471 1462 1463 1461 1462 1464 1466 1466 1466 1468 1470 1473 1475 1478 1480 1483 1485 1487 1489 1491 1492 1493 1494 1494 1495 1495 1495 1494 1494 1494 1493 1492 1491 1490 1489 1488 1486
1508 1502 1501 1481 1464 1464 1468 1470 1455 1455 1456 1459 1462 1470 1464 1462 1465 1468 1470 1473 1475 1478 1480 1483 1485 1487 1489 1490 1491 1492 1492 1493 1493 1493 1493 1492 1492 1491 1491 1490 1489 1488 1487 1485
1504 1502 1491 1467 1462 1464 1477 1470 1452 1451 1452 1454 1456 1457 1457 1459 1462 1465 1468 1470 1473 1475 1478 1480 1482 1484 1486 1488 1489 1490 1490 1491 1491 1491 1491 1490 1490 1489 1489 1488 1487 1486 1485 1484
1501 1501 1490 1459 1461 1464 1460 1451 1450 1449 1449 1450 1451 1453 1455 1457 1460 1462 1465 1468 1470 1473 1475 1478 1480 1482 1484 1485 1487 1488 1488 1489 1489 1489 1488 1488 1488 1487 1486 1485 1484 1484 1483 1482
1480 1474 1458 1456 1455 1453 1452 1450 1448 1447 1447 1448 1449 1451 1453 1455 1457 1460 1463 1465 1468 1470 1473 1475 1477 1479 1481 1483 1484 1485 1486 1486 1486 1486 1486 1485 1485 1484 1483 1482 1482 1481 1480 1479
1471 1461 1453 1451 1449 1448 1448 1447 1446 1446 1446 1446 1447 1448 1450 1452 1455 1457 1460 1462 1465 1467 1470 1472 1475 1477 1479 1480 1481 1482 1483 1483 1483 1483 1483 1482 1482 1481 1480 1479 1478 1478 1477 1476
1466 1456 1450 1445 1445 1445 1444 1443 1443 1443 1443 1443 1444 1445 1447 1449 1451 1454 1457 1459 1462 1464 1467 1469 1472 1474 1476 1477 1478 1479 1480 1480 1480 1480 1480 1480 1479 1478 1477 1476 1475 1475 1474 1473
1458 1450 1450 1445 1443 1442 1441 1439 1439 1439 1438 1439 1440 1441 1443 1445 1448 1450 1453 1456 1458 1461 1464 1466 1469 1471 1473 1474 1475 1476 1476 1477 1477 1477 1477 1477 1476 1476 1474 1474 1473 1472 1471 1470
1447 1445 1443 1441 1439 1437 1436 1435 1434 1434 1434 1434 1435 1437 1439 1441 1443 1446 1449 1452 1454 1457 1460 1463 1465 1467 1469 1471 1472 1473 1473 1474 1474 1474 1474 1474 1474 1473 1473 1472 1471 1470 1469 1468
1442 1440 1437 1435 1433 1431 1430 1429 1428 1428 1428 1429 1430 1431 1433 1436 1438 1441 1444 1447 1450 1454 1456 1459 1461 1463 1465 1467 1468 1469 1470 1471 1471 1472 1472 1472 1472 1471 1471 1470 1470 1468 1468 1467
1435 1434 1432 1429 1426 1424 1423 1422 1421 1420 1421 1422 1423 1425 1427 1430 1432 1435 1439 1443 1446 1449 1452 1455 1457 1460 1462 1463 1465 1466 1467 1468 1468 1469 1469 1469 1469 1469 1469 1468 1468 1467 1466 1465
1430 1427 1424 1422 1419 1417 1416 1415 1414 1413 1413 1414 1416 1418 1420 1424 1427 1431 1434 1438 1441 1444 1447 1451 1453 1456 1458 1460 1462 1463 1464 1465 1466 1467 1467 1467 1468 1468 1467 1467 1466 1466 1465 1465
1426 1422 1419 1416 1413 1411 1409 1408 1407 1406 1406 1407 1409 1411 1414 1417 1421 1425 1429 1433 1437 1441 1444 1447 1450 1452 1455 1457 1459 1460 1461 1463 1464 1465 1465 1466 1466 1466 1466 1466 1466 1465 1465 1464
1423 1419 1416 1413 1409 1406 1403 1401 1400 1399 1400 1401 1403 1405 1408 1411 1415 1419 1424 1428 1433 1437 1440 1444 1446 1449 1452 1454 1456 1458 1459 1460 1462 1463 1464 1464 1465 1465 1465 1465 1465 1465 1464 1464
1417 1413 1409 1406 1403 1400 1397 1395 1394 1394 1394 1395 1397 1399 1403 1406 1410 1415 1419 1424 1428 1432 1436 1440 1443 1446 1449 1451 1453 1455 1457 1458 1460 1461 1462 1463 1464 1464 1465 1465 1465 1464 1464 1463
1413 1409 1405 1401 1398 1395 1392 1390 1389 1389 1389 1391 1392 1395 1399 1403 1407 1411 1415 1420 1424 1428 1433 1436 1440 1443 1446 1448 1451 1453 1455 1456 1458 1459 1461 1462 1462 1463 1463 1464 1464 1464 1463 1463
1411 1406 1402 1398 1395 1392 1389 1387 1386 1385 1386 1387 1389 1391 1395 1399 1403 1408 1412 1417 1422 1427 1430 1434 1437 1440 1443 1446 1448 1451 1452 1454 1456 1458 1459 1460 1461 1462 1462 1462 1462 1462 1462 1461
1411 1406 1401 1397 1393 1390 1387 1385 1384 1383 1384 1385 1387 1390 1393 1396 1401 1405 1410 1415 1419 1424 1427 1431 1435 1438 1441 1444 1446 1448 1450 1452 1454 1456 1457 1458 1459 1460 1460 1461 1461 1460 1460 1459
1410 1406 1402 1398 1394 1391 1388 1386 1384 1383 1384 1384 1386 1388 1391 1394 1398 1402 1407 1413 1417 1421 1425 1429 1433 1436 1439 1441 1444 1446 1448 1450 1452 1454 1455 1456 1457 1458 1458 1458 1458 1458 1457 1457
1408 1405 1401 1398 1395 1392 1389 1386 1385 1384 1384 1385 1387 1389 1391 1394 1398 1402 1406 1411 1415 1419 1423 1427 1431 1434 1437 1439 1442 1444 1446 1448 1450 1452 1453 1454 1455 1456 1456 1456 1456 1455 1454 1453
1406 1403 1400 1397 1394 1392 1390 1388 1386 1386 1385 1386 1387 1389 1391 1394 1397 1401 1405 1409 1413 1417 1421 1425 1429 1432 1435 1437 1440 1442 1444 1446 1448 1449 1451 1451 1452 1453 1453 1453 1452 1452 1451 1449
1403 1401 1399 1396 1394 1391 1390 1388 1387 1387 1386 1386 1387 1389 1391 1394 1397 1401 1404 1408 1412 1415 1419 1423 1426 1429 1432 1435 1437 1440 1442 1443 1445 1446 1448 1448 1449 1449 1449 1449 1449 1448 1447 1445
1400 1398 1395 1393 1391 1389 1388 1387 1386 1386 1386 1387 1388 1389 1391 1394 1397 1400 1403 1407 1410 1414 1417 1421 1424 1427 1430 1432 1435 1437 1439 1440 1442 1443 1444 1445 1445 1445 1445 1445 1444 1443 1442 1440